Location: Fernhill
(41.0167°S, 175.6333°E)
Time: 11:47:33
(UTC+00:00)

CENTAUR R/B - Pass Details

Date: 08 November 2025
Orbit: 633 x 1547 km, 63.4° (Epoch: 10 December)

Event Time Altitude Azimuth Distance (km) Brightness Sun altitude
Rises 08:30:00 0° 221° (SW) 3,321 7.1 -14.4°
Reaches altitude 10° 08:32:43 10° 228° (SW) 2,274 5.9 -14.8°
Maximum altitude 08:37:22 38° 296° (WNW) 1,027 2.9 -15.5°
Enters shadow 08:40:50 14° 360° (N) 1,773 3.5 -16.0°
